Voltar ao catálogo

HULIANWANG DIGUI-01

AtivoComunicaçõesPO
NORAD 62323·PAYLOAD·🇨🇳 China

Lançado Dec 16, 2024 de Wenchang Space Launch Site

Loading…

Próximas Passagens (próximas 24 horas)

TLE

AtualizadoSource: Space-Track

Época: Sep 14, 2026, 14:21 UTC

1 62323U 24240A   26257.59846106  .00000025  00000-0  24423-4 0  9995
2 62323  86.4995 313.0893 0001775  89.8380 270.2957 13.24414058 84479

Acompanhe HULIANWANG DIGUI-01 em tempo real com AllMySat

Download on the App Store